Location: Unspecified
(40.8819°N, 0.0000°E)
Time: 18:50:10
(UTC+00:00)

PCSat - Pass Details

Date: 18 April 2024
Orbit: 783 x 792 km, 67.1° (Epoch: 22 May)

Event Time Altitude Azimuth Distance (km) Brightness Sun altitude
Rises 03:03:52 0° 344° (NNW) 3,298 13.1 -22.9°
Reaches altitude 10° 03:07:54 10° 13° (NNE) 2,366 12.7 -22.4°
Maximum altitude 03:10:10 12° 38° (NE) 2,192 12.9 -22.0°
Drops below altitude 10° 03:12:24 10° 63° (ENE) 2,362 13.1 -21.7°
Sets 03:16:25 0° 92° (E) 3,287 13.6 -21.1°
